G4MHJ-1 Weather Reports


Display with metric or nautical units.
time (UTC)temp
F
wind
direction
speed
MPH
gust
MPH
rain 1hr
in
rain 24hr
in
rain mn
in
humidity
%
barometer
mb
20260505202131 54 46 1.0 7.0 0.00 0.00 0.00 74 1012.4
20260505192129 55 141 0.0 5.0 0.00 0.00 0.00 74 1011.6
20260505182129 57 94 0.0 6.0 0.00 0.00 0.00 69 1011.2
20260505172128 57 123 0.0 6.0 0.00 0.00 0.00 65 1011.3
20260505162130 59 182 1.0 7.0 0.00 0.00 0.00 60 1011.4
20260505152128 62 53 2.0 7.0 0.00 0.00 0.00 54 1011.4
20260505122121 61 49 4.0 11.0 0.00 0.00 0.00 57 1011.9
20260505112119 60 61 4.0 9.0 0.00 0.00 0.00 61 1012.1
20260505102119 58 5 3.0 11.0 0.00 0.00 0.00 70 1012.5
20260505092117 55 349 4.0 10.0 0.00 0.00 0.00 77 1012.8
20260505082107 54 56 4.0 9.0 0.00 0.00 0.00 79 1013.0
20260505072107 52 51 4.0 9.0 0.00 0.00 0.00 86 1012.9
20260505062107 51 44 3.0 7.0 0.00 0.00 0.00 91 1013.2
20260505052109 50 49 2.0 5.0 0.00 0.00 0.00 93 1013.3
20260505032105 51 44 1.0 6.0 0.00 0.00 0.00 93 1013.4
20260505022104 51 43 1.0 6.0 0.00 0.00 0.00 93 1013.6
20260505012104 52 56 0.0 5.0 0.00 0.00 0.00 93 1014.0
20260505002103 53 35 1.0 7.0 0.00 0.00 0.00 93 1014.2
20260504232102 53 69 0.0 7.0 0.00 0.00 0.00 92 1014.4
20260504222102 54 53 1.0 4.0 0.00 0.00 0.00 92 1014.4
20260504212101 55 115 0.0 4.0 0.00 0.00 0.00 91 1014.4